This demonstration page uses our WeatherBlox Daily Observations layout. Learn more.

Left ArrowRight Arrow

34.16533, -84.80231

Hourly Observations for October 13, 2020

Temp ( °F °C ) Dew Point ( °F °C ) Humidity (%) Winds ( mph kmh ) Pressure ( in mb ) Visibility ( mi km ) Precip ( " mm )
12:53 am 00:53 Cloudy 70 21.1 67 19.4 90 90 Calm 29.92 1013 10 16 0.00 0.00
1:53 am 01:53 Cloudy 70 21.1 67 19.4 90 90 Calm 29.91 1013 10 16 0.00 0.00
2:53 am 02:53 Mostly Cloudy 69 20.6 67 19.4 93 93 Calm 29.92 1013 8 13 0.00 0.00
3:53 am 03:53 Partly Cloudy with Mist and Fog 68 20 65 18.3 90 90 Calm 29.91 1013 5 8 0.00 0.00
4:11 am 04:11 Partly Cloudy with Mist and Fog 67 19.4 65 18.3 93 93 Calm 29.93 1014 2 3 0.00 0.00
4:22 am 04:22 Mostly Cloudy with Mist and Fog 66 18.9 64 17.8 93 93 Calm 29.94 1014 1 1 0.00 0.00
4:28 am 04:28 Mostly Cloudy with Mist and Fog 66 18.9 64 17.8 93 93 Calm 29.94 1014 2 3 0.00 0.00
4:36 am 04:36 Mostly Cloudy with Mist and Fog 67 19.4 64 17.8 91 91 Calm 29.94 1014 4 6 0.00 0.00
4:53 am 04:53 Cloudy with Mist and Fog 67 19.4 65 18.3 93 93 Calm 29.92 1013 6 10 0.00 0.00
5:53 am 05:53 Mostly Cloudy 69 20.6 66 18.9 90 90 VRB 5 7 29.94 1014 8 13 0.00 0.00
6:17 am 06:17 Partly Cloudy 69 20.6 64 17.8 84 84 N 9 15 29.97 1015 10 16 0.00 0.00
6:53 am 06:53 Partly Cloudy 67 19.4 61 16.1 81 81 N 9 15 29.98 1015 10 16 0.00 0.00
7:02 am 07:02 Mostly Cloudy 67 19.4 61 16.1 81 81 N 7 11 30.00 1016 10 16 0.00 0.00
7:53 am 07:53 Cloudy 65 18.3 59 15 81 81 N 12 19 30.01 1016 10 16 0.00 0.00
8:53 am 08:53 Cloudy 63 17.2 56 13.3 78 78 VRB 5 7 30.05 1018 10 16 0.00 0.00
9:38 am 09:38 Mostly Cloudy 64 17.8 55 12.8 73 73 N 5 7 30.07 1018 10 16 0.00 0.00
9:53 am 09:53 Mostly Cloudy 65 18.3 55 12.8 70 70 VRB 6 9 30.05 1018 10 16 0.00 0.00
10:04 am 10:04 Partly Cloudy 65 18.3 55 12.8 70 70 N 6 9 30.07 1018 10 16 0.00 0.00
10:53 am 10:53 Sunny 67 19.4 55 12.8 66 66 Calm 30.05 1018 10 16 0.00 0.00
11:53 am 11:53 Sunny 70 21.1 55 12.8 59 59 VRB 3 6 30.06 1018 10 16 0.00 0.00
12:53 pm 12:53 Sunny 72 22.2 55 12.8 55 55 Calm 30.06 1018 10 16 0.00 0.00
1:53 pm 13:53 Sunny 74 23.3 55 12.8 52 52 undefined N/A 30.04 1017 10 16 0.00 0.00
2:53 pm 14:53 Sunny 76 24.4 55 12.8 48 48 VRB 5 7 30.02 1017 10 16 0.00 0.00
3:53 pm 15:53 Sunny 77 25 53 11.7 43 43 N 12 19 30.01 1016 10 16 0.00 0.00
4:53 pm 16:53 Sunny 76 24.4 51 10.6 42 42 NNW 7 11 30.01 1016 10 16 0.00 0.00
5:53 pm 17:53 Sunny 73 22.8 52 11.1 48 48 NNW 7 11 30.01 1016 10 16 0.00 0.00
6:53 pm 18:53 Sunny 68 20 53 11.7 59 59 VRB 3 6 30.02 1017 10 16 0.00 0.00
7:53 pm 19:53 Clear 63 17.2 52 11.1 68 68 Calm 30.02 1017 10 16 0.00 0.00
8:53 pm 20:53 Clear 61 16.1 52 11.1 72 72 Calm 30.03 1017 10 16 0.00 0.00
9:53 pm 21:53 Clear 59 15 52 11.1 78 78 Calm 30.05 1018 10 16 0.00 0.00
10:53 pm 22:53 Clear 58 14.4 53 11.7 84 84 Calm 30.06 1018 10 16 0.00 0.00
11:53 pm 23:53 Clear 57 13.9 51 10.6 81 81 Calm 30.06 1018 10 16 0.00 0.00

Powered by AerisWeather